Find Starlink 35630

NORAD ID: 66131 Int'l Des: 2025-237 Owner: SPXS Country: US Constellation: starlink operational
LEOCIRCULAR

現在のビュー

3D地球を読み込み中...

About Starlink 35630

Starlink 35630 (NORAD 66131) is a starlink constellation satellite (v2 mini) launched Oct 22, 2025 by SPXS of US. It operates in LEO, CIRCULAR orbit with a mass of 575.00 kg.

次回通過

Passes for default location (London). Set your location on the main map for personalized predictions.

高度履歴

Loading altitude history...

軌道要素

1 66131U 25237T 26263.55966059 .00017122 00000-0 51651-3 0 9994
2 66131 53.1554 211.0963 0001726 89.4332 270.6868 15.34412825 52491
Epoch: Sep 20, 2026 • Age: 8 hours

現在のステータス

高度 465.1 km
遠地点 / 近地点 N/A
速度 7.64 km/s
衛星直下点 38.83°N, 75.46°W
打ち上げ日 Oct 22, 2025
運用期間 0.9 years
タイプ internet

技術仕様

分類 Payload
質量 575.00 kg
乾燥質量 530.00 kg
長さ 0.30 m
スパン 29.00 m
形状 ? Box + pan
製造者 SPXS
バスタイプ Starlink V2MO
フェーズステータス In Orbit
所有者/国 SPXS/US

Most Searched